Previsão horária em Abolcy

Hoje, 9 Maio, Domingo

Tempo Temperatura Precipitação Vento Pressão Humidade
00:00 0°C° 0 mm 4 m/s 749 mmHg 81%
01:00 0°C° 0 mm 4 m/s 750 mmHg 83%
02:00 +1°C° 0 mm 3 m/s 750 mmHg 85%
03:00 0°C° 0 mm 3 m/s 751 mmHg 87%
04:00 0°C° 0 mm 3 m/s 751 mmHg 89%
05:00 0°C° 0 mm 3 m/s 752 mmHg 91%
06:00 +2°C° 0 mm 3 m/s 752 mmHg 80%
07:00 +4°C° 0 mm 4 m/s 753 mmHg 68%
08:00 +6°C° 0 mm 4 m/s 754 mmHg 57%
09:00 +7°C° 0 mm 4 m/s 754 mmHg 52%
10:00 +8°C° 0 mm 4 m/s 754 mmHg 47%
11:00 +10°C° 0 mm 4 m/s 754 mmHg 42%
12:00 +11°C° 0 mm 4 m/s 754 mmHg 41%
13:00 +11°C° 0 mm 4 m/s 754 mmHg 39%
14:00 +12°C° 0 mm 4 m/s 755 mmHg 38%
15:00 +12°C° 0 mm 3 m/s 755 mmHg 39%
16:00 +12°C° 0 mm 3 m/s 755 mmHg 40%
17:00 +13°C° 0 mm 2 m/s 755 mmHg 42%
18:00 +10°C° 0 mm 2 m/s 755 mmHg 47%
19:00 +10°C° 0 mm 1 m/s 756 mmHg 52%
20:00 +8°C° 0 mm 1 m/s 756 mmHg 58%
21:00 +7°C° 0 mm 1 m/s 756 mmHg 59%
22:00 +5°C° 0 mm 2 m/s 757 mmHg 61%
23:00 +5°C° 0 mm 2 m/s 757 mmHg 62%

Amanhã, 10 Maio, Segunda-feira

Tempo Temperatura Precipitação Vento Pressão Humidade
00:00 +4°C° 0 mm 2 m/s 757 mmHg 64%
01:00 +4°C° 0 mm 2 m/s 757 mmHg 66%
02:00 +4°C° 0 mm 2 m/s 757 mmHg 67%
03:00 +4°C° 0 mm 2 m/s 758 mmHg 68%
04:00 +4°C° 0 mm 2 m/s 758 mmHg 69%
05:00 +4°C° 0 mm 2 m/s 758 mmHg 70%
06:00 +6°C° 0 mm 2 m/s 758 mmHg 66%
07:00 +8°C° 0 mm 3 m/s 758 mmHg 61%
08:00 +10°C° 0 mm 3 m/s 759 mmHg 56%
09:00 +12°C° 0 mm 3 m/s 758 mmHg 53%
10:00 +13°C° 0 mm 3 m/s 758 mmHg 50%
11:00 +14°C° 0 mm 3 m/s 758 mmHg 46%
12:00 +16°C° 0 mm 3 m/s 758 mmHg 45%
13:00 +17°C° 0 mm 3 m/s 758 mmHg 44%
14:00 +17°C° 0 mm 2 m/s 758 mmHg 43%
15:00 +17°C° 0 mm 2 m/s 758 mmHg 45%
16:00 +17°C° 0 mm 2 m/s 757 mmHg 47%
17:00 +17°C° 0 mm 2 m/s 757 mmHg 49%
18:00 +14°C° 0 mm 3 m/s 757 mmHg 55%
19:00 +12°C° 0 mm 3 m/s 757 mmHg 60%
20:00 +10°C° 0 mm 3 m/s 758 mmHg 66%
21:00 +9°C° 0 mm 3 m/s 758 mmHg 66%
22:00 +8°C° 0 mm 3 m/s 758 mmHg 66%
23:00 +7°C° 0 mm 3 m/s 758 mmHg 66%

Depois de amanhã, 11 Maio, Terça-feira

Tempo Temperatura Precipitação Vento Pressão Humidade
00:00 +7°C° 0 mm 2 m/s 758 mmHg 67%
01:00 +6°C° 0 mm 2 m/s 758 mmHg 69%
02:00 +6°C° 0 mm 2 m/s 758 mmHg 70%
03:00 +6°C° 0 mm 2 m/s 758 mmHg 72%
04:00 +6°C° 0 mm 2 m/s 757 mmHg 73%
05:00 +6°C° 0 mm 2 m/s 757 mmHg 75%
06:00 +8°C° 0 mm 3 m/s 757 mmHg 69%
07:00 +10°C° 0 mm 3 m/s 757 mmHg 63%
08:00 +12°C° 0 mm 4 m/s 757 mmHg 57%
09:00 +13°C° 0 mm 4 m/s 757 mmHg 53%
10:00 +14°C° 0 mm 4 m/s 757 mmHg 49%
11:00 +15°C° 0 mm 5 m/s 756 mmHg 44%
12:00 +17°C° 0 mm 4 m/s 756 mmHg 45%
13:00 +18°C° 0 mm 4 m/s 755 mmHg 46%
14:00 +19°C° 0 mm 4 m/s 755 mmHg 47%
15:00 +19°C° 0 mm 4 m/s 755 mmHg 52%
16:00 +19°C° 0 mm 4 m/s 755 mmHg 56%
17:00 +19°C° 0 mm 4 m/s 754 mmHg 61%
18:00 +17°C° 0 mm 4 m/s 754 mmHg 69%
19:00 +16°C° 0 mm 3 m/s 754 mmHg 77%
20:00 +13°C° 0 mm 3 m/s 754 mmHg 85%
21:00 +12°C° 0 mm 3 m/s 754 mmHg 89%
22:00 +12°C° 0 mm 3 m/s 754 mmHg 92%
23:00 +11°C° 0 mm 3 m/s 754 mmHg 95%

12 Maio, Quarta-feira

Tempo Temperatura Precipitação Vento Pressão Humidade
00:00 +10°C° 0 mm 3 m/s 754 mmHg 96%
01:00 +10°C° 0 mm 3 m/s 753 mmHg 96%
02:00 +9°C° 0 mm 2 m/s 753 mmHg 97%
03:00 +9°C° 0 mm 2 m/s 753 mmHg 96%
04:00 +9°C° 0 mm 2 m/s 753 mmHg 95%
05:00 +9°C° 0 mm 2 m/s 752 mmHg 94%
06:00 +9°C° 0.1 mm 2 m/s 752 mmHg 92%
07:00 +9°C° 0.1 mm 2 m/s 752 mmHg 91%
08:00 +9°C° 0.1 mm 3 m/s 752 mmHg 89%
09:00 +10°C° 0.2 mm 3 m/s 752 mmHg 86%
10:00 +11°C° 0.2 mm 4 m/s 751 mmHg 82%
11:00 +11°C° 0.2 mm 4 m/s 751 mmHg 79%
12:00 +12°C° 0.1 mm 5 m/s 751 mmHg 74%
13:00 +13°C° 0.1 mm 6 m/s 751 mmHg 69%
14:00 +14°C° 0.1 mm 6 m/s 750 mmHg 64%
15:00 +13°C° 0.1 mm 6 m/s 750 mmHg 69%
16:00 +11°C° 0.1 mm 6 m/s 750 mmHg 73%
17:00 +10°C° 0.1 mm 5 m/s 750 mmHg 77%
18:00 +9°C° 0.1 mm 5 m/s 749 mmHg 81%
19:00 +9°C° 0.1 mm 5 m/s 749 mmHg 84%
20:00 +8°C° 0.1 mm 4 m/s 749 mmHg 87%
21:00 +8°C° 0 mm 4 m/s 749 mmHg 88%
22:00 +7°C° 0 mm 4 m/s 749 mmHg 90%
23:00 +7°C° 0 mm 4 m/s 748 mmHg 91%

13 Maio, Quinta-feira

Tempo Temperatura Precipitação Vento Pressão Humidade
00:00 +7°C° 0.1 mm 4 m/s 748 mmHg 91%
01:00 +7°C° 0.1 mm 4 m/s 748 mmHg 92%
02:00 +7°C° 0.1 mm 4 m/s 747 mmHg 93%
03:00 +7°C° 0.1 mm 4 m/s 747 mmHg 92%
04:00 +7°C° 0.1 mm 4 m/s 747 mmHg 92%
05:00 +7°C° 0.1 mm 4 m/s 747 mmHg 91%
06:00 +8°C° 0 mm 4 m/s 747 mmHg 87%
07:00 +8°C° 0 mm 4 m/s 747 mmHg 83%
08:00 +8°C° 0 mm 5 m/s 747 mmHg 79%
09:00 +10°C° 0 mm 5 m/s 747 mmHg 74%
10:00 +12°C° 0 mm 5 m/s 747 mmHg 68%
11:00 +13°C° 0 mm 5 m/s 747 mmHg 63%
12:00 +13°C° 0.2 mm 5 m/s 746 mmHg 66%
13:00 +13°C° 0.2 mm 4 m/s 746 mmHg 69%
14:00 +13°C° 0.2 mm 4 m/s 746 mmHg 72%
15:00 +13°C° 0.1 mm 4 m/s 746 mmHg 75%
16:00 +13°C° 0.1 mm 4 m/s 746 mmHg 78%
17:00 +14°C° 0.1 mm 5 m/s 745 mmHg 81%
18:00 +14°C° 0.1 mm 5 m/s 745 mmHg 82%
19:00 +13°C° 0.1 mm 5 m/s 745 mmHg 82%
20:00 +13°C° 0.1 mm 5 m/s 744 mmHg 83%
21:00 +13°C° 0.4 mm 5 m/s 744 mmHg 87%
22:00 +13°C° 0.4 mm 5 m/s 744 mmHg 91%
23:00 +12°C° 0.4 mm 4 m/s 743 mmHg 95%

14 Maio, Sexta-feira

Tempo Temperatura Precipitação Vento Pressão Humidade
00:00 +12°C° 0.3 mm 4 m/s 743 mmHg 96%
01:00 +12°C° 0.3 mm 4 m/s 743 mmHg 96%
02:00 +12°C° 0.3 mm 4 m/s 743 mmHg 97%
03:00 +12°C° 0.1 mm 4 m/s 743 mmHg 96%
04:00 +12°C° 0.1 mm 4 m/s 743 mmHg 96%
05:00 +12°C° 0.1 mm 4 m/s 743 mmHg 95%
06:00 +12°C° 0.1 mm 4 m/s 743 mmHg 94%
07:00 +12°C° 0.1 mm 4 m/s 743 mmHg 93%
08:00 +12°C° 0.1 mm 4 m/s 743 mmHg 92%
09:00 +13°C° 0.1 mm 4 m/s 744 mmHg 86%
10:00 +15°C° 0.1 mm 5 m/s 744 mmHg 80%
11:00 +16°C° 0.1 mm 5 m/s 744 mmHg 74%
12:00 +16°C° 0.3 mm 5 m/s 745 mmHg 74%
13:00 +16°C° 0.3 mm 5 m/s 745 mmHg 74%
14:00 +17°C° 0.3 mm 5 m/s 745 mmHg 74%
15:00 +17°C° 0.1 mm 4 m/s 745 mmHg 75%
16:00 +17°C° 0.1 mm 3 m/s 745 mmHg 76%
17:00 +17°C° 0.1 mm 2 m/s 745 mmHg 77%
18:00 +16°C° 0.2 mm 2 m/s 745 mmHg 81%
19:00 +15°C° 0.2 mm 2 m/s 745 mmHg 86%
20:00 +14°C° 0.2 mm 1 m/s 745 mmHg 90%
21:00 +13°C° 0.9 mm 1 m/s 745 mmHg 92%
22:00 +13°C° 0.9 mm 2 m/s 745 mmHg 93%
23:00 +13°C° 0.9 mm 2 m/s 745 mmHg 95%
Mostrar mais

Necessitamos do seu Consentimento

A Meteoprog e os seus Fornecedores de Serviços podem armazenar e aceder a dados pessoais como cookies, identificadores do dispositivo ou outras tecnologias semelhantes existentes no seu dispositivo e processar estes dados para personalizar conteúdos e anúncios, assim como funcionalidades nas redes sociais e análise de tráfego.

  • Armazenar e/ou aceder a informações no seu dispositivo

    Os cookies, identificadores do dispositivo ou outras informações podem ser armazenados ou acedidos no seu dispositivo, para os fins acima indicados.

  • Anúncios e conteúdos personalizados, medição de anúncios e conteúdos, dados sobre o público-alvo e desenvolvimento de produtos

    Os anúncios e os conteúdos podem ser personalizados com base num perfil. Podem ser adicionados dados adicionais para uma maior personalização dos anúncios e dos conteúdos. A eficácia dos anúncios e dos conteúdos pode ser medida. Podem ser obtidas informações sobre o público que visualizou os anúncios e os conteúdos. Estes dados podem ser usados para desenvolver ou melhorar sistemas, softwares ou a experiência do utilizador.

Ao clicar em "Eu concordo”, permitirá o uso de cookies, identificadores do dispositivo e web beacons mencionados ou outras tecnologias semelhantes. As configurações do navegador do seu dispositivo podem ser alteradas.

Para certos fins, podem ser invocados interesses legítimos ao invés de consentimento. Pode ler mais informação sobre este assunto na nossa Política de Privacidade e Cookies.